User: anonymous   Login
Location: Newark
(13.6797°N, 8.5297°E)
Time: 12:22:08
(UTC+00:00)
Language:

Courier 1B Rocket - Orbit

View from above orbital plane
View from above orbital plane
View from above satellite
View from above satellite

Ground track
Ground track

The orbit data is extracted from the following two-line orbital elements,

1    59U 60013B   20024.85332055  .00000119  00000-0  39275-4 0  9994
2    59  28.2468 240.9832 0189217 152.5428 208.5258 13.52973792927511
Epoch (UTC): 24 January 2020 20:28:46
Eccentricity: 0.0189217
inclination: 28.2468°
perigee height: 920 km
apogee height: 1202 km
right ascension of ascending node: 240.9832°
argument of perigee: 152.5428°
revolutions per day: 13.52973792
mean anomaly at epoch: 208.5258°
orbit number at epoch: 92751

The dashed part of the orbit path shows where the satellite is in the earth's shadow,  

DLR